TimeCST,TemperatureF,Dew PointF,Humidity,Sea Level PressureIn,VisibilityMPH,Wind Direction,Wind SpeedMPH,Gust SpeedMPH,PrecipitationIn,Events,Conditions,WindDirDegrees,DateUTC
12:53 AM,6.1,-2.9,67,30.21,10.0,SE,13.8,-,N/A,,Overcast,140,2013-12-30 06:53:00
1:53 AM,7.0,-2.9,64,30.17,10.0,SSE,13.8,-,N/A,,Overcast,150,2013-12-30 07:53:00
2:53 AM,9.0,-0.9,64,30.15,10.0,SSE,13.8,-,N/A,,Overcast,160,2013-12-30 08:53:00
3:53 AM,9.0,1.0,70,30.12,7.0,SSE,15.0,-,N/A,,Overcast,150,2013-12-30 09:53:00
4:53 AM,9.0,3.0,77,30.10,10.0,SSE,15.0,-,N/A,,Overcast,150,2013-12-30 10:53:00
5:53 AM,10.0,3.9,76,30.09,10.0,SSE,10.4,-,0.00,,Mostly Cloudy,150,2013-12-30 11:53:00
6:53 AM,10.9,3.9,73,30.08,10.0,SSE,11.5,-,N/A,,Overcast,150,2013-12-30 12:53:00
7:44 AM,12.2,6.8,79,29.98,9.0,SSE,10.4,-,N/A,,Overcast,150,2013-12-30 13:44:00
7:53 AM,12.0,7.0,80,30.07,5.0,SSE,10.4,-,0.00,Snow,Light Snow,150,2013-12-30 13:53:00
8:05 AM,12.2,8.6,85,29.98,3.0,SSE,8.1,-,0.00,Snow,Light Snow,160,2013-12-30 14:05:00
8:16 AM,14.0,8.6,79,29.97,9.0,SSE,9.2,-,0.00,,Unknown,160,2013-12-30 14:16:00
8:53 AM,16.0,12.0,84,30.06,10.0,South,10.4,-,0.00,,Overcast,170,2013-12-30 14:53:00
9:53 AM,17.1,12.9,84,30.06,3.0,SSE,8.1,-,0.00,Snow,Light Snow,160,2013-12-30 15:53:00
10:07 AM,17.6,14.0,86,29.98,1.8,South,8.1,-,0.00,Snow,Light Snow,180,2013-12-30 16:07:00
10:16 AM,17.6,14.0,86,29.98,3.0,South,8.1,-,0.00,Snow,Light Snow,170,2013-12-30 16:16:00
10:40 AM,17.6,15.8,93,29.99,2.5,South,4.6,-,0.00,Snow,Light Snow,170,2013-12-30 16:40:00
10:49 AM,17.6,15.8,93,30.00,5.0,Calm,Calm,-,0.00,Snow,Light Snow,0,2013-12-30 16:49:00
10:53 AM,19.0,15.1,85,30.08,6.0,Calm,Calm,-,0.00,Snow,Light Snow,0,2013-12-30 16:53:00
11:24 AM,19.4,15.8,86,30.00,1.8,Calm,Calm,-,0.00,Snow,Light Snow,0,2013-12-30 17:24:00
11:38 AM,19.4,15.8,86,30.00,3.0,Calm,Calm,-,0.00,Snow,Light Snow,0,2013-12-30 17:38:00
11:43 AM,19.4,15.8,86,30.01,2.5,Calm,Calm,-,0.00,Snow,Light Snow,0,2013-12-30 17:43:00
11:53 AM,19.9,17.1,89,30.09,6.0,WNW,3.5,-,0.00,Snow,Light Snow,300,2013-12-30 17:53:00
12:26 PM,21.2,15.8,80,30.02,10.0,NW,23.0,31.1,0.00,,Overcast,320,2013-12-30 18:26:00
12:53 PM,19.9,14.0,78,30.12,7.0,NNW,25.3,-,0.00,,Unknown,330,2013-12-30 18:53:00
1:49 PM,17.6,10.4,73,30.09,8.0,NNW,24.2,28.8,0.00,,Overcast,330,2013-12-30 19:49:00
1:53 PM,17.1,10.0,74,30.17,8.0,NNW,21.9,28.8,0.00,,Overcast,330,2013-12-30 19:53:00
2:15 PM,15.8,8.6,73,30.09,5.0,NNW,23.0,-,0.00,Snow,Light Snow,330,2013-12-30 20:15:00
2:50 PM,15.8,8.6,73,30.12,6.0,NNW,21.9,-,0.00,,Overcast,340,2013-12-30 20:50:00
2:53 PM,14.0,8.1,77,30.21,6.0,NNW,20.7,-,0.00,,Overcast,340,2013-12-30 20:53:00
2:55 PM,14.0,8.6,79,30.13,6.0,NNW,21.9,-,0.00,,Overcast,330,2013-12-30 20:55:00
3:53 PM,12.0,6.1,77,30.25,10.0,NNW,16.1,-,0.01,,Mostly Cloudy,340,2013-12-30 21:53:00
4:53 PM,10.0,3.9,76,30.30,10.0,NNW,13.8,-,N/A,,Scattered Clouds,330,2013-12-30 22:53:00
5:53 PM,9.0,3.0,77,30.32,10.0,NNW,12.7,-,N/A,,Clear,340,2013-12-30 23:53:00
6:53 PM,6.1,1.0,80,30.32,10.0,NNW,5.8,-,N/A,,Clear,340,2013-12-31 00:53:00
7:53 PM,5.0,1.0,84,30.35,10.0,NNW,6.9,-,N/A,,Clear,340,2013-12-31 01:53:00
8:53 PM,3.9,1.0,88,30.34,10.0,Calm,Calm,-,N/A,,Partly Cloudy,0,2013-12-31 02:53:00
9:53 PM,5.0,1.0,84,30.34,10.0,NW,4.6,-,N/A,,Overcast,320,2013-12-31 03:53:00
10:53 PM,6.1,1.0,80,30.35,10.0,Calm,Calm,-,N/A,,Overcast,0,2013-12-31 04:53:00
11:53 PM,6.1,1.0,80,30.32,10.0,East,3.5,-,N/A,,Overcast,90,2013-12-31 05:53:00